Zurück zum Katalog

STARLINK-30424

AktivKommunikationVLEO
NORAD 57857·PAYLOAD·🇺🇸 United States

Gestartet Sep 12, 2023 von Vandenberg Space Force Base

Loading…

Nächste Überflüge (nächste 24 Stunden)

TLE

AktuellSource: CelesTrak SupGP

Epoche: Sep 15, 2026, 03:06 UTC

1 57857C 23141T   26258.12965278 -.00007490  00000+0 -24084-3 0  2586
2 57857  53.1565  97.3365 0001375  92.1954 304.9274 15.31707946    11

Verfolge STARLINK-30424 in Echtzeit mit AllMySat

Download on the App Store